Location: ???????
(55.8930°N, 38.0586°E)
Time: 02:05:01
(UTC+00:00)

Cosmos 2297 - Pass Details

Date: 14 April 2024
Orbit: 834 x 859 km, 71.0° (Epoch: 28 May)

Event Time Altitude Azimuth Distance (km) Brightness Sun altitude
Rises 01:19:30 0° 325° (NW) 3,438 6.8 -9.0°
Reaches altitude 10° 01:21:58 10° 326° (NW) 2,501 6.1 -8.7°
Maximum altitude 01:27:44 86° 54° (NE) 869 3.8 -8.0°
Drops below altitude 10° 01:33:30 10° 146° (SE) 2,494 6.2 -7.3°
Sets 01:35:57 0° 147° (SSE) 3,427 6.9 -7.0°
